Date,TemperatureHighF,TemperatureAvgF,TemperatureLowF,DewpointHighF,DewpointAvgF,DewpointLowF,HumidityHigh,HumidityAvg,HumidityLow,PressureMaxIn,PressureMinIn,WindSpeedMaxMPH,WindSpeedAvgMPH,GustSpeedMaxMPH,PrecipitationSumIn
2013-5-1,85.0,64.4,48.2,39.4,28.2,17.5,57,27,13,30.11,29.87,10,0,10,0.00
2013-5-2,85.2,63.3,44.8,48.4,36.1,17.8,62,39,22,30.16,30.08,7,0,7,0.00
2013-5-3,81.7,67.4,46.2,52.8,45.6,37.8,81,49,27,30.09,29.80,7,0,7,0.00
2013-5-4,84.5,64.6,50.4,45.7,37.8,28.0,62,38,22,29.81,29.52,10,0,10,0.00
2013-5-5,67.9,57.2,48.7,48.1,43.6,36.2,82,61,44,29.79,29.50,9,0,9,0.00
2013-5-6,59.1,52.4,48.5,51.5,47.6,44.2,93,84,64,29.93,29.78,4,0,4,0.54
2013-5-7,54.0,51.8,48.8,52.0,49.5,45.9,94,92,88,30.02,29.93,1,0,3,0.23
2013-5-8,61.9,53.1,51.0,54.4,50.5,49.2,95,91,70,30.10,30.01,5,0,5,0.03
2013-5-9,73.5,57.9,45.3,59.4,51.8,43.1,94,82,55,30.11,30.03,6,0,6,0.00
2013-5-10,81.1,68.9,49.7,63.8,58.1,47.6,94,71,44,30.12,30.04,7,0,7,0.00
2013-5-11,84.3,66.4,52.3,64.9,57.6,50.0,94,76,43,30.09,30.02,6,0,6,0.00
2013-5-12,87.2,69.1,54.8,63.0,52.7,45.5,93,62,25,30.08,29.98,9,0,9,0.00
2013-5-13,88.1,68.0,51.5,58.2,45.6,37.1,83,52,18,30.02,29.90,13,0,13,0.00
2013-5-14,83.0,66.4,50.1,58.2,50.3,41.4,79,59,29,29.90,29.83,10,0,10,0.00
2013-5-15,74.7,62.0,52.4,53.8,49.4,44.2,87,66,36,29.93,29.84,11,0,12,0.00
2013-5-16,65.8,57.9,52.1,51.2,48.0,45.7,86,70,52,29.92,29.86,13,0,13,0.02
2013-5-17,68.3,56.1,45.7,49.0,43.6,39.9,90,65,41,30.02,29.87,10,0,10,0.00
2013-5-18,73.0,54.8,41.0,47.4,42.4,37.4,90,67,34,30.10,30.01,9,0,9,0.00
2013-5-19,76.2,58.6,44.7,53.2,43.5,36.6,86,61,32,30.09,29.98,11,0,11,0.00
2013-5-20,82.8,62.5,43.2,49.7,41.7,34.1,75,50,25,30.03,29.90,9,0,9,0.00
2013-5-21,75.0,61.7,50.6,47.8,42.0,31.4,75,51,22,29.92,29.80,14,1,14,0.00
2013-5-22,62.2,48.3,33.0,41.1,29.8,20.0,83,53,21,29.88,29.83,9,0,9,0.00
2013-5-23,64.5,53.8,33.7,41.0,34.6,25.3,83,51,32,30.00,29.86,12,0,12,0.00
2013-5-24,60.2,39.8,36.1,42.2,33.8,31.5,90,79,44,29.98,29.95,4,0,4,0.00
2013-5-25,73.3,49.6,40.6,46.0,38.1,35.2,86,68,29,29.97,29.91,11,0,11,0.00
2013-5-26,70.5,55.4,42.3,50.4,42.4,37.8,87,64,38,30.07,29.95,11,0,11,0.00
2013-5-27,59.1,52.1,43.5,52.2,46.4,39.6,92,81,64,30.06,29.96,10,0,10,0.15
2013-5-28,69.1,57.2,50.1,53.8,50.3,47.5,94,80,49,29.97,29.87,7,0,7,0.04
2013-5-29,56.2,53.4,51.8,53.4,50.5,48.4,93,90,85,29.89,29.83,10,0,10,0.12